STOCKHOLM/ARLANDA current weather conditions

sailwx.info

Wind from 360 at 6 knots

Air temperature 12.0° C
Dewpoint 4.0° C

Last reported at 2014-Sep-30 10:20 UTC.
Time now 2014-Sep-30 11:48 UTC

Location: N 59°39' E 017°57'.
View on Google Maps.

See reports from other nearby stations

  
Tides and Currents Weather Stations Pressure Air Temp Water Temp Dewpoint Dewpoint Depression Visibility Wind Speed Wind Dir Waves Ship Positions
date/time (UTC)wind fromknots sea level pressurealtimeterstation pressurevisibilityair tempwater tempwave heightnotes
2014-Sep-30 10:20 360 6 12.0
2014-Sep-30 09:50 350 5 11.0
2014-Sep-30 09:20 350 6 10.0
2014-Sep-30 08:50 350 6 10.0
2014-Sep-30 08:20 330 7 9.0
2014-Sep-30 07:50 340 7 8.0
2014-Sep-30 07:20 320 7 8.0
2014-Sep-30 06:50 330 7 6.0
2014-Sep-30 06:20 330 5 5.0
2014-Sep-30 05:50 320 5 3.0
2014-Sep-30 05:20 320 4 2.0
2014-Sep-30 04:50 320 4 4.0
2014-Sep-30 04:20 290 5 3.0
2014-Sep-30 03:50 340 5 4.0
2014-Sep-30 03:20 320 4 5.0
2014-Sep-30 02:50 310 5 5.0
2014-Sep-30 02:20 300 5 5.0
2014-Sep-30 01:50 280 5 5.0
2014-Sep-30 01:20 300 5 6.0
2014-Sep-30 00:50 320 5 7.0
2014-Sep-30 00:20 320 6 8.0
2014-Sep-29 23:50 290 5 6.0
2014-Sep-29 23:20 320 7 8.0
2014-Sep-29 22:50 310 6 9.0
2014-Sep-29 22:20 330 9 9.0
2014-Sep-29 21:50 320 7 9.0
2014-Sep-29 21:20 330 5 9.0
2014-Sep-29 20:50 300 5 9.0
2014-Sep-29 20:20 300 6 9.0
2014-Sep-29 19:50 300 5 9.0
2014-Sep-29 19:20 280 5 6.0
2014-Sep-29 18:50 300 4 7.0
2014-Sep-29 18:20 310 5 9.0
2014-Sep-29 17:50 290 4 8.0
2014-Sep-29 17:20 310 4 10.0
2014-Sep-29 16:50 330 6 13.0
2014-Sep-29 16:20 310 9 14.0
2014-Sep-29 15:50 300 7 16.0
2014-Sep-29 15:20 300 8 17.0
2014-Sep-29 14:50 290 8 17.0
2014-Sep-29 14:20 330 8 17.0
2014-Sep-29 13:50 330 11 17.0
2014-Sep-29 13:20 330 10 17.0
2014-Sep-29 12:50 310 11 17.0
2014-Sep-29 12:20 280 11 17.0
2014-Sep-29 11:50 280 12 17.0
2014-Sep-29 11:20 290 12 16.0
2014-Sep-29 10:50 270 11 16.0
2014-Sep-29 10:20 270 11 15.0
2014-Sep-29 09:50 270 11 15.0
2014-Sep-29 09:20 280 11 15.0
2014-Sep-29 08:50 270 12 14.0
2014-Sep-29 08:20 280 13 14.0
2014-Sep-29 07:50 270 13 14.0
2014-Sep-29 07:20 270 13 14.0
2014-Sep-29 06:50 260 10 13.0
2014-Sep-29 06:20 260 10 13.0
2014-Sep-29 05:50 250 9 12.0
2014-Sep-29 05:20 260 7 12.0
2014-Sep-29 04:50 250 8 12.0
2014-Sep-29 04:20 250 9 13.0
2014-Sep-29 03:50 250 8 13.0
2014-Sep-29 03:20 250 9 13.0
2014-Sep-29 02:50 250 9 13.0
2014-Sep-29 02:20 240 8 13.0
2014-Sep-29 01:50 240 7 13.0
2014-Sep-29 01:20 240 8 5.413.0
2014-Sep-29 00:50 240 10 5.413.0
2014-Sep-29 00:20 240 9 13.0
2014-Sep-28 23:50 230 9 13.0
2014-Sep-28 23:20 240 9 13.0
2014-Sep-28 22:50 250 11 13.0
2014-Sep-28 22:20 250 11 13.0
2014-Sep-28 21:50 240 11 13.0
2014-Sep-28 21:20 250 10 13.0
2014-Sep-28 20:50 240 9 13.0
2014-Sep-28 20:20 240 10 13.0
2014-Sep-28 19:50 240 10 13.0
2014-Sep-28 19:20 240 9 13.0
2014-Sep-28 18:50 220 9 13.0
2014-Sep-28 18:20 230 8 13.0
2014-Sep-28 17:50 240 9 14.0
2014-Sep-28 17:20 220 9 14.0
2014-Sep-28 16:50 240 13 14.0
2014-Sep-28 16:20 230 12 15.0
2014-Sep-28 15:50 240 12 15.0
2014-Sep-28 15:20 240 12 16.0
2014-Sep-28 14:50 260 14 16.0
2014-Sep-28 14:20 250 15 16.0
2014-Sep-28 13:50 250 16 16.0
2014-Sep-28 13:20 260 15 17.0
2014-Sep-28 12:50 260 16 5.416.0
2014-Sep-28 12:20 250 19 5.416.0
2014-Sep-28 11:50 250 17 5.416.0
2014-Sep-28 11:20 250 18 5.416.0